,,PA_Meas_PMT16A,,PR_Meas_QMR101_102,,RH_Meas_QMH101,,SR_Meas_QMS101,,TA_Meas_QMH101,,GenWind,,GenWind,
time,status,PA,status,PR,status,RH,status,SR,status,TA,status,DirAvg,status,SpdAvg,
2010-10-26, 00:00:04,VALID,918.592,VALID,0,VALID,97.6255,VALID,0,VALID,18.1028,VALID,138,VALID,0.739844,
2010-10-26, 00:01:04,VALID,918.623,VALID,0,VALID,97.6255,VALID,0,VALID,18.1431,VALID,138,VALID,0.633594,
2010-10-26, 00:02:04,VALID,918.601,VALID,0,VALID,97.6331,VALID,0,VALID,18.1431,VALID,138,VALID,0.667969,
2010-10-26, 00:03:04,VALID,918.575,VALID,0,VALID,97.6178,VALID,0,VALID,18.1028,VALID,138,VALID,0.570313,
2010-10-26, 00:04:04,VALID,918.572,VALID,0,VALID,97.6255,VALID,0.107441,VALID,18.0833,VALID,138,VALID,0.799219,
2010-10-26, 00:05:04,VALID,918.554,VALID,0,VALID,97.6331,VALID,0.107441,VALID,18.1236,VALID,138,VALID,0.844922,
2010-10-26, 00:06:04,VALID,918.54,VALID,0,VALID,97.6331,VALID,0,VALID,18.125,VALID,138,VALID,0.55625,
2010-10-26, 00:07:04,VALID,918.522,VALID,0,VALID,97.6483,VALID,0.107441,VALID,18.1028,VALID,138,VALID,0.474609,
2010-10-26, 00:08:04,VALID,918.526,VALID,0,VALID,97.6178,VALID,0.107441,VALID,18.1222,VALID,138,VALID,0.580078,
2010-10-26, 00:09:04,VALID,918.513,VALID,0,VALID,97.6331,VALID,0.107441,VALID,18.1222,VALID,138,VALID,0.648438,
2010-10-26, 00:10:04,VALID,918.521,VALID,0,VALID,97.6178,VALID,0.107441,VALID,18.1028,VALID,138,VALID,0.737109,
2010-10-26, 00:11:04,VALID,918.481,VALID,0.2,VALID,97.6331,VALID,0,VALID,18.1236,VALID,138,VALID,0.689062,
2010-10-26, 00:12:04,VALID,918.462,VALID,0,VALID,97.6178,VALID,0,VALID,18.0833,VALID,137,VALID,0.922656,
2010-10-26, 00:13:04,VALID,918.458,VALID,0,VALID,97.6255,VALID,0,VALID,18.0846,VALID,132,VALID,0.895312,
2010-10-26, 00:14:04,VALID,918.473,VALID,0,VALID,97.6331,VALID,0.107441,VALID,18.0638,VALID,132,VALID,0.66875,
2010-10-26, 00:15:04,VALID,918.429,VALID,0,VALID,97.6407,VALID,0,VALID,18.0833,VALID,132,VALID,0.462891,
2010-10-26, 00:16:04,VALID,918.41,VALID,0,VALID,97.6255,VALID,0.107441,VALID,18.1028,VALID,132,VALID,0.373828,
2010-10-26, 00:17:04,VALID,918.398,VALID,0,VALID,97.6255,VALID,0.107441,VALID,18.0833,VALID,132,VALID,0.617188,
2010-10-26, 00:18:04,VALID,918.367,VALID,0,VALID,97.6407,VALID,0,VALID,18.0638,VALID,132,VALID,0.807422,
2010-10-26, 00:19:04,VALID,918.365,VALID,0,VALID,97.6255,VALID,0,VALID,18.0443,VALID,132,VALID,0.920313,
2010-10-26, 00:20:04,VALID,918.339,VALID,0,VALID,97.656,VALID,0.107441,VALID,18.0638,VALID,132,VALID,0.81875,
2010-10-26, 00:21:04,VALID,918.301,VALID,0,VALID,97.6331,VALID,0.107441,VALID,18.0443,VALID,132,VALID,0.753906,
2010-10-26, 00:22:04,VALID,918.309,VALID,0,VALID,97.6331,VALID,0,VALID,18.0248,VALID,132,VALID,0.700781,
2010-10-26, 00:23:04,VALID,918.293,VALID,0,VALID,97.6255,VALID,0,VALID,18.0443,VALID,132,VALID,0.678516,
2010-10-26, 00:24:04,VALID,918.265,VALID,0,VALID,97.6407,VALID,0.107441,VALID,18.0443,VALID,132,VALID,0.500391,
2010-10-26, 00:25:04,VALID,918.25,VALID,0,VALID,97.6407,VALID,0,VALID,18.0651,VALID,132,VALID,0.367188,
2010-10-26, 00:26:04,VALID,918.244,VALID,0,VALID,97.6483,VALID,0,VALID,18.0443,VALID,132,VALID,0.63125,
2010-10-26, 00:27:04,VALID,918.199,VALID,0,VALID,97.6255,VALID,0,VALID,18.0457,VALID,132,VALID,0.686719,
2010-10-26, 00:28:04,VALID,918.22,VALID,0,VALID,97.6255,VALID,0,VALID,18.0262,VALID,132,VALID,0.69375,
2010-10-26, 00:29:04,VALID,918.203,VALID,0,VALID,97.6255,VALID,0,VALID,18.0262,VALID,132,VALID,0.710938,
2010-10-26, 00:30:04,VALID,918.204,VALID,0,VALID,97.6178,VALID,0,VALID,18.0262,VALID,132,VALID,0.689844,
2010-10-26, 00:31:04,VALID,918.182,VALID,0,VALID,97.6255,VALID,0,VALID,18.0457,VALID,132,VALID,0.2375,
2010-10-26, 00:32:04,VALID,918.174,VALID,0,VALID,97.6255,VALID,0,VALID,18.0262,VALID,132,VALID,0.721875,
2010-10-26, 00:33:04,VALID,918.161,VALID,0,VALID,97.6255,VALID,0,VALID,18.0067,VALID,132,VALID,0.526953,
2010-10-26, 00:34:04,VALID,918.17,VALID,0,VALID,97.6255,VALID,0,VALID,18.0067,VALID,132,VALID,0.457812,
2010-10-26, 00:35:04,VALID,918.154,VALID,0,VALID,97.6178,VALID,0,VALID,18.0067,VALID,132,VALID,0.246875,
2010-10-26, 00:36:04,VALID,918.134,VALID,0,VALID,97.6255,VALID,0,VALID,17.9872,VALID,132,VALID,0.344531,
2010-10-26, 00:37:04,VALID,918.137,VALID,0,VALID,97.6255,VALID,0,VALID,18.0067,VALID,132,VALID,0.434766,
2010-10-26, 00:38:04,VALID,918.123,VALID,0,VALID,97.6331,VALID,0,VALID,17.9872,VALID,132,VALID,0.428125,
2010-10-26, 00:39:04,VALID,918.1,VALID,0,VALID,97.6255,VALID,0,VALID,17.9872,VALID,132,VALID,0.494531,
2010-10-26, 00:40:04,VALID,918.089,VALID,0,VALID,97.6331,VALID,0,VALID,17.9872,VALID,132,VALID,0.183984,
2010-10-26, 00:41:04,VALID,918.069,VALID,0,VALID,97.6178,VALID,0,VALID,17.9872,VALID,132,VALID,0.463672,
2010-10-26, 00:42:04,VALID,918.076,VALID,0,VALID,97.6331,VALID,0,VALID,17.9677,VALID,132,VALID,0.562109,
2010-10-26, 00:43:04,VALID,918.039,VALID,0,VALID,97.6255,VALID,0,VALID,17.9677,VALID,132,VALID,0.713281,
2010-10-26, 00:44:04,VALID,918.036,VALID,0,VALID,97.6178,VALID,0,VALID,17.9677,VALID,132,VALID,0.719922,
2010-10-26, 00:45:04,VALID,918.017,VALID,0,VALID,97.6407,VALID,0,VALID,17.9677,VALID,132,VALID,0.616797,
2010-10-26, 00:46:04,VALID,918.013,VALID,0,VALID,97.6255,VALID,0,VALID,17.9677,VALID,132,VALID,0.337109,
2010-10-26, 00:47:04,VALID,917.994,VALID,0,VALID,97.6178,VALID,0,VALID,17.9677,VALID,132,VALID,0.463672,
2010-10-26, 00:48:04,VALID,917.987,VALID,0,VALID,97.6407,VALID,0,VALID,18.0067,VALID,132,VALID,0.425,
2010-10-26, 00:49:04,VALID,917.972,VALID,0,VALID,97.6255,VALID,0,VALID,17.9872,VALID,132,VALID,0.651172,
2010-10-26, 00:50:04,VALID,917.953,VALID,0.2,VALID,97.6255,VALID,0,VALID,17.9872,VALID,132,VALID,0.757031,
2010-10-26, 00:51:04,VALID,917.923,VALID,0,VALID,97.6178,VALID,0,VALID,17.9677,VALID,132,VALID,0.716406,
2010-10-26, 00:52:04,VALID,917.915,VALID,0,VALID,97.6026,VALID,0,VALID,17.9677,VALID,132,VALID,0.767578,
2010-10-26, 00:53:04,VALID,917.877,VALID,0,VALID,97.6102,VALID,0,VALID,17.9677,VALID,132,VALID,0.429688,
2010-10-26, 00:54:04,VALID,917.899,VALID,0,VALID,97.6407,VALID,0,VALID,17.9482,VALID,132,VALID,0.730859,
2010-10-26, 00:55:04,VALID,917.848,VALID,0,VALID,97.6331,VALID,0,VALID,17.9677,VALID,132,VALID,0.812109,
2010-10-26, 00:56:04,VALID,917.87,VALID,0,VALID,97.6178,VALID,0,VALID,17.9677,VALID,132,VALID,0.847656,
2010-10-26, 00:57:04,VALID,917.874,VALID,0,VALID,97.6178,VALID,0,VALID,17.9482,VALID,132,VALID,0.774219,
2010-10-26, 00:58:04,VALID,917.826,VALID,0,VALID,97.6331,VALID,0,VALID,17.9677,VALID,132,VALID,0.564453,
2010-10-26, 00:59:04,VALID,917.849,VALID,0,VALID,97.6255,VALID,0,VALID,17.9482,VALID,132,VALID,0.605469,
2010-10-26, 01:00:04,VALID,917.809,VALID,0,VALID,97.6178,VALID,0,VALID,17.9274,VALID,132,VALID,0.787109,
2010-10-26, 01:01:04,VALID,917.808,VALID,0,VALID,97.6102,VALID,0,VALID,17.9482,VALID,132,VALID,0.553516,
2010-10-26, 01:02:04,VALID,917.776,VALID,0,VALID,97.6102,VALID,0.107441,VALID,17.9677,VALID,132,VALID,0.669141,
2010-10-26, 01:03:04,VALID,917.763,VALID,0,VALID,97.6178,VALID,0,VALID,17.9482,VALID,132,VALID,0.53125,
2010-10-26, 01:04:04,VALID,917.758,VALID,0,VALID,97.6102,VALID,0,VALID,17.9482,VALID,132,VALID,0.645703,
2010-10-26, 01:05:04,VALID,917.76,VALID,0,VALID,97.6026,VALID,0,VALID,17.9677,VALID,132,VALID,0.817578,
2010-10-26, 01:06:04,VALID,917.732,VALID,0,VALID,97.6178,VALID,0,VALID,17.9677,VALID,132,VALID,0.799609,
2010-10-26, 01:07:04,VALID,917.745,VALID,0,VALID,97.6102,VALID,0,VALID,17.9872,VALID,132,VALID,0.863672,
2010-10-26, 01:08:04,VALID,917.733,VALID,0,VALID,97.6026,VALID,0,VALID,17.9677,VALID,132,VALID,0.863672,
2010-10-26, 01:09:04,VALID,917.715,VALID,0,VALID,97.6178,VALID,0,VALID,17.9872,VALID,132,VALID,0.434766,
2010-10-26, 01:10:04,VALID,917.704,VALID,0,VALID,97.6026,VALID,0,VALID,17.9677,VALID,132,VALID,0.692187,
2010-10-26, 01:11:04,VALID,917.698,VALID,0,VALID,97.6026,VALID,0,VALID,17.9677,VALID,132,VALID,0.336719,
2010-10-26, 01:12:04,VALID,917.688,VALID,0.2,VALID,97.6255,VALID,0,VALID,17.9677,VALID,132,VALID,0.216016,
2010-10-26, 01:13:04,VALID,917.671,VALID,0,VALID,97.6178,VALID,0,VALID,17.9677,VALID,132,VALID,0.39375,
2010-10-26, 01:14:04,VALID,917.698,VALID,0,VALID,97.595,VALID,0,VALID,17.9482,VALID,132,VALID,0.429688,
2010-10-26, 01:15:04,VALID,917.664,VALID,0,VALID,97.5873,VALID,0,VALID,17.9482,VALID,132,VALID,0.500781,
2010-10-26, 01:16:04,VALID,917.67,VALID,0,VALID,97.6026,VALID,0,VALID,17.9287,VALID,132,VALID,0.283203,
2010-10-26, 01:17:04,VALID,917.659,VALID,0,VALID,97.6102,VALID,0,VALID,17.9287,VALID,132,VALID,0.453516,
2010-10-26, 01:18:04,VALID,917.637,VALID,0,VALID,97.6026,VALID,0,VALID,17.9287,VALID,132,VALID,0.0925781,
2010-10-26, 01:19:04,VALID,917.61,VALID,0,VALID,97.6178,VALID,0,VALID,17.9287,VALID,132,VALID,0,
2010-10-26, 01:20:04,VALID,917.587,VALID,0,VALID,97.6255,VALID,0,VALID,17.9301,VALID,132,VALID,0,
2010-10-26, 01:21:04,VALID,917.587,VALID,0,VALID,97.6026,VALID,0,VALID,17.9092,VALID,132,VALID,0,
2010-10-26, 01:22:04,VALID,917.56,VALID,0,VALID,97.595,VALID,0,VALID,17.9287,VALID,132,VALID,0,
2010-10-26, 01:23:04,VALID,917.569,VALID,0,VALID,97.6178,VALID,0,VALID,17.8897,VALID,132,VALID,0,
2010-10-26, 01:24:04,VALID,917.574,VALID,0,VALID,97.6102,VALID,0,VALID,17.9092,VALID,132,VALID,0,
2010-10-26, 01:25:04,VALID,917.542,VALID,0,VALID,97.6102,VALID,0,VALID,17.9482,VALID,132,VALID,0,
2010-10-26, 01:26:04,VALID,917.537,VALID,0,VALID,97.6102,VALID,0,VALID,17.9482,VALID,132,VALID,0,
2010-10-26, 01:27:04,VALID,917.505,VALID,0,VALID,97.6178,VALID,0,VALID,17.9287,VALID,132,VALID,0,
2010-10-26, 01:28:04,VALID,917.51,VALID,0,VALID,97.6026,VALID,0,VALID,17.9092,VALID,132,VALID,0,
2010-10-26, 01:29:04,VALID,917.498,VALID,0,VALID,97.5873,VALID,0,VALID,17.9092,VALID,132,VALID,0,
2010-10-26, 01:30:04,VALID,917.514,VALID,0,VALID,97.6026,VALID,0,VALID,17.8897,VALID,132,VALID,0,
2010-10-26, 01:31:04,VALID,917.478,VALID,0,VALID,97.6026,VALID,0,VALID,17.9301,VALID,132,VALID,0,
2010-10-26, 01:32:04,VALID,917.473,VALID,0,VALID,97.6178,VALID,0,VALID,17.9092,VALID,132,VALID,0.120703,
2010-10-26, 01:33:04,VALID,917.468,VALID,0,VALID,97.6026,VALID,0,VALID,17.9287,VALID,132,VALID,0,
2010-10-26, 01:34:04,VALID,917.449,VALID,0,VALID,97.6026,VALID,0,VALID,17.9496,VALID,132,VALID,0,
2010-10-26, 01:35:04,VALID,917.479,VALID,0,VALID,97.6255,VALID,0,VALID,17.9482,VALID,132,VALID,0,
2010-10-26, 01:36:04,VALID,917.444,VALID,0,VALID,97.6102,VALID,0,VALID,17.9482,VALID,132,VALID,0,
2010-10-26, 01:37:04,VALID,917.456,VALID,0,VALID,97.6178,VALID,0,VALID,17.9482,VALID,132,VALID,0,
2010-10-26, 01:38:04,VALID,917.425,VALID,0,VALID,97.6026,VALID,0,VALID,17.9677,VALID,132,VALID,0,
2010-10-26, 01:39:04,VALID,917.406,VALID,0,VALID,97.6026,VALID,0,VALID,17.9482,VALID,132,VALID,0,
2010-10-26, 01:40:04,VALID,917.411,VALID,0.2,VALID,97.6026,VALID,0,VALID,17.9287,VALID,132,VALID,0,
2010-10-26, 01:41:04,VALID,917.347,VALID,0,VALID,97.595,VALID,0,VALID,17.9287,VALID,132,VALID,0,
2010-10-26, 01:42:04,VALID,917.346,VALID,0,VALID,97.6102,VALID,0,VALID,17.9092,VALID,132,VALID,0,
2010-10-26, 01:43:04,VALID,917.356,VALID,0,VALID,97.6255,VALID,0,VALID,17.9092,VALID,132,VALID,0,
2010-10-26, 01:44:04,VALID,917.33,VALID,0,VALID,97.6178,VALID,0,VALID,17.8897,VALID,132,VALID,0,
2010-10-26, 01:45:04,VALID,917.299,VALID,0,VALID,97.6255,VALID,0,VALID,17.8702,VALID,132,VALID,0,
2010-10-26, 01:46:04,VALID,917.296,VALID,0,VALID,97.6178,VALID,0,VALID,17.8911,VALID,132,VALID,0,
2010-10-26, 01:47:04,VALID,917.298,VALID,0,VALID,97.6255,VALID,0,VALID,17.8702,VALID,132,VALID,0,
2010-10-26, 01:48:04,VALID,917.274,VALID,0,VALID,97.6178,VALID,0,VALID,17.8702,VALID,132,VALID,0.293359,
2010-10-26, 01:49:04,VALID,917.258,VALID,0,VALID,97.595,VALID,0,VALID,17.8702,VALID,132,VALID,0.29375,
2010-10-26, 01:50:04,VALID,917.252,VALID,0,VALID,97.6178,VALID,0,VALID,17.8702,VALID,132,VALID,0.121094,
2010-10-26, 01:51:05,VALID,917.226,VALID,0,VALID,97.6255,VALID,0,VALID,17.8702,VALID,132,VALID,0.418359,
2010-10-26, 01:52:05,VALID,917.252,VALID,0,VALID,97.6178,VALID,0,VALID,17.8702,VALID,132,VALID,0.350391,
2010-10-26, 01:53:05,VALID,917.201,VALID,0,VALID,97.6178,VALID,0,VALID,17.8702,VALID,132,VALID,0.401563,
2010-10-26, 01:54:05,VALID,917.228,VALID,0,VALID,97.6331,VALID,0,VALID,17.8702,VALID,132,VALID,0.543359,
2010-10-26, 01:55:05,VALID,917.221,VALID,0,VALID,97.6331,VALID,0,VALID,17.8702,VALID,132,VALID,0.478125,
2010-10-26, 01:56:05,VALID,917.223,VALID,0,VALID,97.6178,VALID,0,VALID,17.8897,VALID,132,VALID,0.483203,
2010-10-26, 01:57:05,VALID,917.156,VALID,0,VALID,97.6331,VALID,0,VALID,17.8897,VALID,132,VALID,0.357031,
2010-10-26, 01:58:05,VALID,917.197,VALID,0,VALID,97.6255,VALID,0,VALID,17.8897,VALID,132,VALID,0.546484,
2010-10-26, 01:59:05,VALID,917.215,VALID,0,VALID,97.6483,VALID,0,VALID,17.8897,VALID,132,VALID,0.655859,
2010-10-26, 02:00:05,VALID,917.198,VALID,0,VALID,97.6331,VALID,0,VALID,17.8897,VALID,132,VALID,0.799609,
2010-10-26, 02:01:05,VALID,917.187,VALID,0,VALID,97.6331,VALID,0,VALID,17.8897,VALID,132,VALID,0.694531,
2010-10-26, 02:02:05,VALID,917.201,VALID,0,VALID,97.6407,VALID,0,VALID,17.9092,VALID,132,VALID,0.704297,
2010-10-26, 02:03:05,VALID,917.192,VALID,0,VALID,97.6407,VALID,0,VALID,17.9287,VALID,132,VALID,0.665234,
2010-10-26, 02:04:05,VALID,917.184,VALID,0,VALID,97.656,VALID,0,VALID,17.9482,VALID,132,VALID,0.601563,
2010-10-26, 02:05:05,VALID,917.16,VALID,0,VALID,97.6483,VALID,0,VALID,17.9287,VALID,132,VALID,0.505078,
2010-10-26, 02:06:05,VALID,917.12,VALID,0,VALID,97.6178,VALID,0,VALID,17.9482,VALID,132,VALID,0.25,
2010-10-26, 02:07:05,VALID,917.133,VALID,0,VALID,97.6407,VALID,0.107441,VALID,17.9677,VALID,132,VALID,0.179297,
2010-10-26, 02:08:05,VALID,917.099,VALID,0,VALID,97.656,VALID,0,VALID,17.9677,VALID,132,VALID,0.471094,
2010-10-26, 02:09:05,VALID,917.091,VALID,0,VALID,97.6255,VALID,0,VALID,17.9677,VALID,132,VALID,0.474609,
2010-10-26, 02:10:05,VALID,917.074,VALID,0,VALID,97.6483,VALID,0,VALID,17.9872,VALID,132,VALID,0.149219,
2010-10-26, 02:11:05,VALID,917.071,VALID,0,VALID,97.6407,VALID,0,VALID,17.9872,VALID,132,VALID,0.287891,
2010-10-26, 02:12:05,VALID,917.071,VALID,0,VALID,97.6255,VALID,0,VALID,17.9872,VALID,132,VALID,0.6875,
2010-10-26, 02:13:05,VALID,917.07,VALID,0,VALID,97.6331,VALID,0,VALID,17.9872,VALID,132,VALID,0.520703,
2010-10-26, 02:14:05,VALID,917.046,VALID,0,VALID,97.6331,VALID,0,VALID,17.9872,VALID,132,VALID,0.561328,
2010-10-26, 02:15:05,VALID,917.054,VALID,0,VALID,97.6331,VALID,0,VALID,17.9677,VALID,132,VALID,0.560938,
2010-10-26, 02:16:05,VALID,917.031,VALID,0.2,VALID,97.6255,VALID,0,VALID,17.9677,VALID,132,VALID,0.59375,
2010-10-26, 02:17:05,VALID,917.028,VALID,0,VALID,97.6483,VALID,0,VALID,17.9482,VALID,132,VALID,0.416797,
2010-10-26, 02:18:05,VALID,917.008,VALID,0,VALID,97.6483,VALID,0,VALID,17.9274,VALID,132,VALID,0.367578,
2010-10-26, 02:19:05,VALID,917.016,VALID,0,VALID,97.6331,VALID,0,VALID,17.9482,VALID,132,VALID,0.326172,
2010-10-26, 02:20:05,VALID,916.996,VALID,0,VALID,97.6407,VALID,0,VALID,17.9482,VALID,132,VALID,0.425391,
2010-10-26, 02:21:05,VALID,916.957,VALID,0,VALID,97.6407,VALID,0,VALID,17.9287,VALID,132,VALID,0.111328,
2010-10-26, 02:22:05,VALID,916.987,VALID,0,VALID,97.6483,VALID,0,VALID,17.9482,VALID,132,VALID,0.352734,
2010-10-26, 02:23:05,VALID,916.964,VALID,0,VALID,97.656,VALID,0,VALID,17.9287,VALID,132,VALID,0,
2010-10-26, 02:24:05,VALID,916.926,VALID,0,VALID,97.6255,VALID,0,VALID,17.9482,VALID,132,VALID,0.211719,
2010-10-26, 02:25:05,VALID,916.94,VALID,0,VALID,97.6331,VALID,0,VALID,17.9287,VALID,132,VALID,0.0550781,
2010-10-26, 02:26:05,VALID,916.915,VALID,0,VALID,97.6636,VALID,0,VALID,17.9287,VALID,132,VALID,0.0875,
2010-10-26, 02:27:05,VALID,916.919,VALID,0,VALID,97.6331,VALID,0,VALID,17.9092,VALID,132,VALID,0.0269531,
2010-10-26, 02:28:05,VALID,916.921,VALID,0,VALID,97.6407,VALID,0,VALID,17.9287,VALID,132,VALID,0.205078,
2010-10-26, 02:29:05,VALID,916.92,VALID,0,VALID,97.6331,VALID,0,VALID,17.9496,VALID,132,VALID,0.231641,
2010-10-26, 02:30:05,VALID,916.891,VALID,0,VALID,97.6407,VALID,0.107441,VALID,17.9482,VALID,132,VALID,0.0414063,
2010-10-26, 02:31:05,VALID,916.918,VALID,0,VALID,97.6407,VALID,0,VALID,17.9482,VALID,132,VALID,0.222266,
2010-10-26, 02:32:05,VALID,916.92,VALID,0,VALID,97.656,VALID,0,VALID,17.9677,VALID,132,VALID,0.228906,
2010-10-26, 02:33:05,VALID,916.905,VALID,0,VALID,97.6331,VALID,0,VALID,17.9677,VALID,132,VALID,0.237891,
2010-10-26, 02:34:05,VALID,916.895,VALID,0,VALID,97.6483,VALID,0,VALID,17.9677,VALID,132,VALID,0.134766,
2010-10-26, 02:35:05,VALID,916.878,VALID,0,VALID,97.6407,VALID,0,VALID,17.9482,VALID,132,VALID,0,
2010-10-26, 02:36:05,VALID,916.874,VALID,0,VALID,97.6331,VALID,0,VALID,17.9691,VALID,132,VALID,0.0371094,
2010-10-26, 02:37:05,VALID,916.903,VALID,0,VALID,97.6255,VALID,0,VALID,17.9482,VALID,132,VALID,0,
2010-10-26, 02:38:05,VALID,916.917,VALID,0,VALID,97.6331,VALID,0,VALID,17.9677,VALID,132,VALID,0,
2010-10-26, 02:39:05,VALID,916.867,VALID,0,VALID,97.6483,VALID,0,VALID,17.9677,VALID,132,VALID,0,
2010-10-26, 02:40:05,VALID,916.904,VALID,0,VALID,97.6407,VALID,0,VALID,17.9677,VALID,132,VALID,0,
2010-10-26, 02:41:05,VALID,916.91,VALID,0,VALID,97.6407,VALID,0,VALID,17.9886,VALID,132,VALID,0,
2010-10-26, 02:42:05,VALID,916.917,VALID,0,VALID,97.6483,VALID,0,VALID,17.9677,VALID,132,VALID,0,
2010-10-26, 02:43:05,VALID,916.892,VALID,0,VALID,97.6636,VALID,0,VALID,17.9872,VALID,132,VALID,0,
2010-10-26, 02:44:05,VALID,916.89,VALID,0,VALID,97.656,VALID,0,VALID,17.9677,VALID,132,VALID,0,
2010-10-26, 02:45:05,VALID,916.887,VALID,0,VALID,97.6483,VALID,0,VALID,17.9872,VALID,132,VALID,0,
2010-10-26, 02:46:05,VALID,916.896,VALID,0,VALID,97.656,VALID,0,VALID,17.9872,VALID,132,VALID,0,
2010-10-26, 02:47:05,VALID,916.895,VALID,0,VALID,97.6407,VALID,0,VALID,17.9872,VALID,132,VALID,0,
2010-10-26, 02:48:05,VALID,916.895,VALID,0,VALID,97.6483,VALID,0,VALID,17.9287,VALID,132,VALID,0.0292969,
2010-10-26, 02:49:05,VALID,916.868,VALID,0,VALID,97.656,VALID,0,VALID,17.9496,VALID,132,VALID,0.35625,
2010-10-26, 02:50:05,VALID,916.883,VALID,0,VALID,97.6483,VALID,0,VALID,17.9092,VALID,132,VALID,0.504297,
2010-10-26, 02:51:05,VALID,916.85,VALID,0,VALID,97.6407,VALID,0,VALID,17.8494,VALID,132,VALID,0.530859,
2010-10-26, 02:52:05,VALID,916.854,VALID,0,VALID,97.6407,VALID,0,VALID,17.8702,VALID,132,VALID,0.580859,
2010-10-26, 02:53:05,VALID,916.839,VALID,0,VALID,97.656,VALID,0,VALID,17.8702,VALID,132,VALID,0.4875,
2010-10-26, 02:54:05,VALID,916.827,VALID,0,VALID,97.656,VALID,0,VALID,17.8702,VALID,132,VALID,0.480078,
2010-10-26, 02:55:05,VALID,916.824,VALID,0,VALID,97.656,VALID,0,VALID,17.8702,VALID,132,VALID,0.415625,
2010-10-26, 02:56:05,VALID,916.813,VALID,0,VALID,97.6712,VALID,0,VALID,17.8508,VALID,132,VALID,0.371484,
2010-10-26, 02:57:05,VALID,916.836,VALID,0,VALID,97.6788,VALID,0,VALID,17.8911,VALID,132,VALID,0.373047,
2010-10-26, 02:58:05,VALID,916.823,VALID,0,VALID,97.656,VALID,0,VALID,17.8911,VALID,132,VALID,0.377344,
2010-10-26, 02:59:05,VALID,916.833,VALID,0,VALID,97.6712,VALID,0,VALID,17.8702,VALID,132,VALID,0.405469,
2010-10-26, 03:00:05,VALID,916.803,VALID,0,VALID,97.6788,VALID,0,VALID,17.8702,VALID,132,VALID,0.292578,
2010-10-26, 03:01:05,VALID,916.79,VALID,0,VALID,97.6483,VALID,0,VALID,17.9092,VALID,132,VALID,0.375781,
2010-10-26, 03:02:05,VALID,916.796,VALID,0,VALID,97.6712,VALID,0,VALID,17.9092,VALID,132,VALID,0.339844,
2010-10-26, 03:03:05,VALID,916.844,VALID,0,VALID,97.6788,VALID,0,VALID,17.9496,VALID,132,VALID,0,
2010-10-26, 03:04:05,VALID,916.804,VALID,0,VALID,97.6636,VALID,0,VALID,17.9677,VALID,132,VALID,0.228906,
2010-10-26, 03:05:05,VALID,916.826,VALID,0,VALID,97.6636,VALID,0,VALID,17.9482,VALID,132,VALID,0.267188,
2010-10-26, 03:06:05,VALID,916.813,VALID,0,VALID,97.6636,VALID,0,VALID,17.9482,VALID,132,VALID,0.449609,
2010-10-26, 03:07:05,VALID,916.819,VALID,0,VALID,97.6636,VALID,0,VALID,17.9482,VALID,132,VALID,0.189063,
2010-10-26, 03:08:05,VALID,916.825,VALID,0,VALID,97.656,VALID,0,VALID,17.9482,VALID,132,VALID,0.121875,
2010-10-26, 03:09:05,VALID,916.811,VALID,0,VALID,97.6636,VALID,0,VALID,17.9677,VALID,132,VALID,0,
2010-10-26, 03:10:05,VALID,916.852,VALID,0,VALID,97.6712,VALID,0,VALID,17.9872,VALID,132,VALID,0,
2010-10-26, 03:11:05,VALID,916.822,VALID,0,VALID,97.6636,VALID,0,VALID,17.9677,VALID,132,VALID,0,
2010-10-26, 03:12:05,VALID,916.835,VALID,0,VALID,97.6712,VALID,0,VALID,17.9677,VALID,132,VALID,0.475391,
2010-10-26, 03:13:05,VALID,916.811,VALID,0,VALID,97.6636,VALID,0,VALID,17.9482,VALID,132,VALID,0.41875,
2010-10-26, 03:14:05,VALID,916.816,VALID,0,VALID,97.6636,VALID,0,VALID,17.9287,VALID,132,VALID,0.183984,
2010-10-26, 03:15:05,VALID,916.817,VALID,0,VALID,97.6712,VALID,0,VALID,17.9287,VALID,132,VALID,0.765234,
2010-10-26, 03:16:05,VALID,916.845,VALID,0,VALID,97.6712,VALID,0,VALID,17.9482,VALID,132,VALID,0.394922,
2010-10-26, 03:17:05,VALID,916.835,VALID,0,VALID,97.6712,VALID,0,VALID,17.9482,VALID,132,VALID,0.405078,
2010-10-26, 03:18:05,VALID,916.833,VALID,0,VALID,97.6636,VALID,0,VALID,17.9482,VALID,132,VALID,0.293359,
2010-10-26, 03:19:05,VALID,916.826,VALID,0,VALID,97.6636,VALID,0,VALID,17.9482,VALID,132,VALID,0.625,
2010-10-26, 03:20:05,VALID,916.831,VALID,0,VALID,97.6712,VALID,0,VALID,17.9287,VALID,132,VALID,0.410156,
2010-10-26, 03:21:05,VALID,916.799,VALID,0,VALID,97.6788,VALID,0,VALID,17.9092,VALID,132,VALID,0.267188,
2010-10-26, 03:22:05,VALID,916.849,VALID,0,VALID,97.656,VALID,0,VALID,17.9287,VALID,132,VALID,0.383203,
2010-10-26, 03:23:05,VALID,916.852,VALID,0,VALID,97.6712,VALID,0,VALID,17.9301,VALID,132,VALID,0.193359,
2010-10-26, 03:24:05,VALID,916.84,VALID,0,VALID,97.6788,VALID,0,VALID,17.9092,VALID,132,VALID,0,
2010-10-26, 03:25:05,VALID,916.872,VALID,0,VALID,97.6865,VALID,0,VALID,17.9287,VALID,132,VALID,0,
2010-10-26, 03:26:05,VALID,916.86,VALID,0,VALID,97.6865,VALID,0,VALID,17.9482,VALID,132,VALID,0.444141,
2010-10-26, 03:27:05,VALID,916.859,VALID,0,VALID,97.6712,VALID,0,VALID,17.9287,VALID,132,VALID,0.361328,
2010-10-26, 03:28:05,VALID,916.848,VALID,0,VALID,97.6865,VALID,0,VALID,17.9482,VALID,132,VALID,0.229687,
2010-10-26, 03:29:05,VALID,916.882,VALID,0,VALID,97.6712,VALID,0,VALID,17.9079,VALID,132,VALID,0.0257812,
2010-10-26, 03:30:05,VALID,916.874,VALID,0,VALID,97.6788,VALID,0,VALID,17.9482,VALID,132,VALID,0,
2010-10-26, 03:31:05,VALID,916.888,VALID,0,VALID,97.6865,VALID,0,VALID,17.9482,VALID,132,VALID,0.448828,
2010-10-26, 03:32:05,VALID,916.897,VALID,0,VALID,97.6712,VALID,0,VALID,17.9287,VALID,132,VALID,0.473437,
2010-10-26, 03:33:05,VALID,916.89,VALID,0,VALID,97.7093,VALID,0,VALID,17.9482,VALID,132,VALID,0.110156,
2010-10-26, 03:34:05,VALID,916.88,VALID,0,VALID,97.6788,VALID,0.107441,VALID,17.9482,VALID,132,VALID,0.605078,
2010-10-26, 03:35:05,VALID,916.898,VALID,0,VALID,97.6636,VALID,0,VALID,17.9482,VALID,14,VALID,1.00078,
2010-10-26, 03:36:05,VALID,916.887,VALID,0,VALID,97.6865,VALID,0,VALID,17.9287,VALID,10,VALID,0.966406,
2010-10-26, 03:37:05,VALID,916.876,VALID,0,VALID,97.6788,VALID,0,VALID,17.9079,VALID,10,VALID,0.766797,
2010-10-26, 03:38:05,VALID,916.87,VALID,0,VALID,97.6636,VALID,0,VALID,17.9287,VALID,10,VALID,0.882422,
2010-10-26, 03:39:05,VALID,916.854,VALID,0,VALID,97.6788,VALID,0,VALID,17.9092,VALID,10,VALID,0.958984,
2010-10-26, 03:40:05,VALID,916.844,VALID,0,VALID,97.6941,VALID,0,VALID,17.8897,VALID,10,VALID,1.04297,
2010-10-26, 03:41:05,VALID,916.817,VALID,0,VALID,97.6712,VALID,0,VALID,17.8897,VALID,10,VALID,1.03516,
2010-10-26, 03:42:05,VALID,916.839,VALID,0,VALID,97.6941,VALID,0,VALID,17.8897,VALID,10,VALID,0.990625,
2010-10-26, 03:43:05,VALID,916.856,VALID,0,VALID,97.6865,VALID,0,VALID,17.8897,VALID,10,VALID,0.860156,
2010-10-26, 03:44:05,VALID,916.823,VALID,0,VALID,97.6788,VALID,0,VALID,17.8897,VALID,10,VALID,0.892969,
2010-10-26, 03:45:05,VALID,916.827,VALID,0,VALID,97.6865,VALID,0,VALID,17.9092,VALID,10,VALID,0.269531,
2010-10-26, 03:46:05,VALID,916.834,VALID,0,VALID,97.6788,VALID,0,VALID,17.9092,VALID,10,VALID,0.781641,